www.pogodaiklimat.ru

Погода и климат >> Архив погоды >> Россия >> Якутия >> Среднеколымск


АРХИВ ПОГОДЫ в Среднеколымске

Время (UTC), дата Ветер
(напр.,м/с)
 
Видим.   Явления Облачность Т
(С)
Тd
(С)
f
(%)
Тe
(С)
Тes
(С)
Комфортность P
(гПа)
Po
(гПа)
Тmin
(С)
Tmax
(С)
R
(мм)
R24
(мм)
S
(см)
15 11.04 С 1 50 км 10/0
[Ac trans Ci fib]
-15.2 -17.2 85 -18 -18 1008.1 1004.0
18 11.04 С 1 50 км 10/0
[Ac trans Ci fib]
-17.9 -19.8 85 -21 -21 1008.2 1004.0
21 11.04 С 1 50 км 10/0
[Ac trans Ci fib]
-13.9 -15.2 90 -16 -15 1008.0 1003.9 -18.1 5
00 12.04 З 2 50 км 6/0
[Ac trans Ci fib]
-10.1 -13.7 75 -15 -10 1007.9 1003.8
03 12.04 З 2 50 км 5/0
[Ac trans Ci fib]
-5.8 -13.6 54 -10 -5 1007.4 1003.4
06 12.04 З 2 50 км 3/0
[Ci fib]
-2.9 -11.5 51 -6 -4 1007.4 1003.4
09 12.04 СВ 2 50 км 3/0
[Ci fib]
-3.7 -11.3 56 -7 -7 1007.8 1003.8 -2.4
12 12.04 штиль 0 50 км ясно -11.0 -13.0 85 -11 -11 1008.3 1004.3
15 12.04 штиль 0 50 км ясно -17.1 -19.0 85 -17 -17 1008.9 1004.8
18 12.04 штиль 0 50 км ясно -20.5 -22.4 85 -21 -21 1009.4 1005.2
21 12.04 З 1 50 км ясно -15.3 -18.0 80 -18 -16 1009.8 1005.6 -20.8 4
00 13.04 СЗ 1 50 км ясно -4.7 -11.9 57 -7 0 1009.5 1005.5
03 13.04 СВ 1 50 км 3/0
[Ci fib]
+0.9 -8.3 50 -0 +7 1009.0 1005.1
06 13.04 СВ 3 50 км 4/0
[Ci fib]
+2.0 -6.1 55 -2 0 1009.1 1005.2
09 13.04 СВ 2 50 км 4/0
[Ci fib]
-0.5 -8.5 55 -4 -4 1008.8 1004.9 +2.3
12 13.04 ЮВ 2 50 км 10/0
[Ac trans Ci fib]
-3.1 -11.3 53 -7 -7 1009.0 1005.0
15 13.04 В 2 50 км 10/0
[Ac trans Cs]
-3.5 -11.5 54 -7 -7 1008.8 1004.8
18 13.04 В 2 50 км 10/0
[Ac trans Cs]
-5.8 -12.0 62 -10 -10 1008.3 1004.3
21 13.04 штиль 0 50 км 10/0
[Ac trans Ci fib]
-7.3 -12.1 68 -8 -6 1008.5 1004.5 -7.3 3
00 14.04 Ю 3 50 км 10/0
[Ac trans Ci fib]
+1.4 -8.4 48 -2 +1 1009.2 1005.3
03 14.04 Ю 3 50 км 10/0
[Ci fib]
+2.4 -9.5 41 -1 +3 1010.0 1006.1
06 14.04 Ю 2 50 км 10/0
[Ci fib]
+3.3 -9.9 37 +1 +3 1010.5 1006.6
09 14.04 Ю 1 50 км 10/0
[Ci fib]
+1.2 -8.0 50 0 0 1011.3 1007.4 +3.7
12 14.04 В 1 50 км 10/0
[Ci fib]
-3.2 -9.1 64 -5 -5 1010.9 1006.9
15 14.04 В 2 50 км 10/0
[Ac trans Ci fib]
-5.6 -9.4 75 -10 -10 1009.8 1005.8
18 14.04 СВ 1 50 км 10/0
[Ac trans Ci fib]
-9.0 -11.9 79 -11 -11 1009.1 1005.0
21 14.04 В 1 50 км 10/0
[Ci fib]
-0.8 -6.6 65 -2 -1 1008.5 1004.6 -9.4 3
00 15.04 ЮВ 2 50 км 10/0
[Ci fib]
+4.7 -6.5 44 +3 +7 1008.1 1004.3
03 15.04 ЮВ 3 50 км 6/0
[Ci fib]
+6.4 -7.2 37 +4 +9 1007.1 1003.3
06 15.04 ЮВ 4 50 км 4/0
[Ci fib]
+7.4 -7.2 35 +5 +6 1005.9 1002.1
09 15.04 ЮВ 3 50 км 4/0
[Ci fib]
+4.8 -6.8 43 +2 +2 1006.3 1002.5 +7.8
12 15.04 ЮВ 3 50 км 4/0
[Ci fib]
+1.5 -7.6 51 -2 -2 1006.7 1002.8
15 15.04 Ю 3 50 км ясно -0.2 -8.8 52 -4 -4 1006.9 1003.0
18 15.04 Ю 4 50 км 3/0
[Ci fib]
-2.0 -10.5 52 -7 -7 1007.4 1003.5
21 15.04 Ю 3 50 км 8/0
[Ac trans Ci fib]
-1.4 -10.9 48 -6 -4 1008.3 1004.4 -2.7 2
00 16.04 ЮЗ 3 50 км 10/0
[Cs]
+1.2 -12.2 36 -2 +2 1009.0 1005.1
03 16.04 Ю 5 50 км 8/0
[Ci fib]
+2.6 -12.5 32
06 16.04 Ю 4
{10}
50 км 6/1 1000 м
[Cu hum Ci fib]
+2.9 -14.5 26 -1 +1 1009.4 1005.5
09 16.04 Ю 2 50 км 6/1 1000 м
[Sc diur, vesp Ci fib]
+1.2 -11.6 38 -1 -1 1010.8 1006.9 +3.4
12 16.04 Ю 2 50 км ясно -3.4 -10.3 59 -7 -7 1012.2 1008.2
15 16.04 Ю 2 50 км ясно -6.6 -12.2 64 -11 -11 1013.5 1009.5
18 16.04 штиль 0 50 км ясно -11.6 -13.6 85 -12 -12 1015.3 1011.2
21 16.04 Ю 2 50 км ясно -3.6 -10.9 57 -7 -5 1016.8 1012.8 -11.6 <0.5
00 17.04 Ю 2 50 км 3/0
[Ci fib]
+2.6 -12.5 32 +1 +6 1016.7 1012.8
03 17.04 Ю 4 50 км 10/0
[Ci fib]
+3.8 -12.4 29 0 +4 1016.0 1012.1
06 17.04 ЮВ 4
{10}
50 км 10/0
[Ac trans Ci fib]
+3.3 -8.9 40 -0 +1 1015.4 1011.5
09 17.04 ЮВ 4 50 км 10/4
[Sc Ac trans Ci fib]
+1.8 -8.8 45 -2 -2 1014.3 1010.4 +4.2
12 17.04 ЮВ 4
{10}
50 км 10/3 1000 м
[Sc As trans]
+1.0 -8.3 50 -4 -4 1013.5 1009.6
15 17.04 В 3 50 км 10/0
[Ac trans Ci fib]
-0.7 -9.7 51 -5 -5 1012.8 1008.9
18 17.04 ЮВ 4 50 км 10/0
[Ac trans Ci fib]
-1.8 -10.1 53 -7 -7 1011.9 1008.0
21 17.04 В 3 50 км 10/0
[Ac trans Ci fib]
+0.3 -10.9 43 -3 -2 1010.3 1006.4 -2.0 0
00 18.04 В 5
{11}
50 км 10/3 1000 м
[Sc Ac trans Ci fib]
+4.6 -7.1 42 +1 +2 1008.0 1004.2
03 18.04 ЮВ 5
{10}
50 км 10/4 1000 м
[Sc Ac trans]
+3.4 -6.8 47 -1 -0 1006.2 1002.4
06 18.04 Ю 3 50 км 10/4 1000 м
[Sc Ac trans]
+3.0 -5.8 52 -0 0 1005.0 1001.2
09 18.04 В 4
{12}
50 км {ливн. осадки} 10/4 1000 м
[Cb cap Ac trans Ci fib]
+2.2 -4.5 61 -2 -2 1003.9 1000.1 +4.8 0.0
12 18.04 Ю 2 50 км {ливн. осадки} 10/4 600 м
[Cb cap Ac trans Ci fib]
+2.4 -4.6 60 -0 -0 1003.8 1000.0

 

Местоположение метеостанции Среднеколымск (Якутия, Россия): широта 67.45 долгота 153.70 высота над уровнем моря 21 м.

В архиве по умолчанию представлена погода в Среднеколымске за последнюю неделю. Архивные данные за месяц целиком и за предыдущие месяцы, начиная с января 2011 года, Вы можете получить, выбрав интересующий диапазон дат из раскрывающегося списка и нажав кнопку "Ввод!".


*Определитесь, кто Вы:
робот инопланетянин человек

Внимание! Время в таблицах - всемирное. Для получения местного времени необходимо прибавить поправку, которая равна 11 ч.

Смотрите также архив погоды в соседних городах и на ближайших метеорологических станциях:

Погода в Андрюшкино (Якутия, Россия) (194 км)
Погода в Зырянке (Якутия, Россия) (228 км)
Погода в Колымской (Якутия, Россия) (248 км)
Погода в Коркодоне (Магаданская область, Россия) (300 км)
Погода в Константиновской (Чукотка, Россия) (320 км)
Погода в Белой Горе (Якутия, Россия) (335 км)
Погода в Анюйске (Чукотка, Россия) (341 км)
Погода в Черском (Якутия, Россия) (346 км)
Погода в Омолоне (Чукотка, Россия) (391 км)
Погода в Балыгычане (Магаданская область, Россия) (394 км)

Пояснения к столбцам:

Ветер - указаны скорость ветра в м/с - средняя за 10 мин, порывы в срок и между сроками (в фигурных скобках) и направление, откуда дует ветер: С - северный, СВ - северо-восточный, В - восточный, ЮВ - юго-восточный, Ю - южный, ЮЗ - юго-западный, З - западный, СЗ - северо-западный.
Видимость - горизонтальная дальность видимости в метрах или километрах. При видимости от 1 до 10 км при отсутствии осадков обычно наблюдается дымка, при ухудшении видимости до 1 км и менее - туман. В сухую погоду видимость может ухудшаться дымом, пылью или мглою.
Явления - указаны атмосферные явления, наблюдавшиеся в срок или в последний час перед сроком; фигурными скобками обозначены явления, наблюдавшиеся между сроками (за 1-3 часа до срока); квадратными скобками обозначены град или гололедные отложения с указанием их диаметра в мм.
Облачность - указаны через наклонную черту общая и нижняя облачность в баллах и высота нижней границы облаков в метрах; квадратными скобками обозначены формы облаков: Ci - перистые, Cs - перисто-слоистые, Cc - перисто-кучевые, Ac - высококучевые, As - высокослоистые, Sc - слоисто-кучевые, Ns - слоисто-дождевые, Cu - кучевые, Cb - кучево-дождевые. Подробнее классификацию облаков см. в Атласе облаков (PDF).
T - Температура воздуха - температура, измеренная на высоте 2 м над землей.
Td - Температура точки росы - температура, при понижении до которой содержащийся в воздухе водяной пар достигнет насыщения.
f - Относительная влажность воздуха - влажноcть воздуха, измеренная на высоте 2 м над землей.
Te - Эффективная температура - температура, которую ощущает одетый по сезону человек в тени. Характеристика душности погоды. При расчете учитывается влияние влажности воздуха и скорости ветра на теплоощущения человека.
Tes - Эффективная температура на солнце - температура, которую ощущает человек, с поправкой на солнечный нагрев. Характеристика знойности погоды. Зависит от высоты солнца над горизонтом, облачности и скорости ветра. Ночью, в пасмурную погоду, а также при ветре 12 м/с и более поправка равна нулю.
P - Атмосферное давление - приведенное к уровню моря атмосферное давление.
Po - Атмосферное давление - измеренное на уровне метеостанции атмосферное давление.
Tmin - Минимальная температура - минимум температуры воздуха на высоте 2 м над землей.
Tmax - Максимальная температура - максимум температуры воздуха на высоте 2 м над землей.
R - Количество осадков - Количество выпавших осадков за период времени, мм. При наведении курсора мыши на число - период времени, за который выпало указанное количество осадков.
R24 - Количество осадков - Количество выпавших осадков за 24 часа, мм.
S - Снежный покров - Высота снежного покрова, см. При наведении курсора мыши на число - состояние снежного покрова и степень покрытия местности в баллах.